TimeCDT,TemperatureF,Dew PointF,Humidity,Sea Level PressureIn,VisibilityMPH,Wind Direction,Wind SpeedMPH,Gust SpeedMPH,PrecipitationIn,Events,Conditions,WindDirDegrees,DateUTC
12:53 AM,73.9,72.0,93,30.03,10.0,SE,4.6,-,N/A,,Clear,130,2013-07-07 05:53:00
1:53 AM,73.9,72.0,93,30.02,10.0,ESE,4.6,-,N/A,,Clear,120,2013-07-07 06:53:00
2:53 AM,73.0,71.1,93,30.02,10.0,ESE,4.6,-,N/A,,Clear,120,2013-07-07 07:53:00
3:53 AM,73.0,71.1,93,30.04,10.0,SE,3.5,-,N/A,,Scattered Clouds,140,2013-07-07 08:53:00
4:45 AM,73.4,71.6,94,30.02,10.0,SE,3.5,-,N/A,,Mostly Cloudy,140,2013-07-07 09:45:00
4:53 AM,73.0,72.0,96,30.04,10.0,SE,3.5,-,N/A,,Overcast,140,2013-07-07 09:53:00
5:20 AM,73.4,71.6,94,30.02,10.0,SE,4.6,-,N/A,,Partly Cloudy,140,2013-07-07 10:20:00
5:53 AM,73.0,71.1,93,30.04,10.0,Calm,Calm,-,N/A,,Clear,0,2013-07-07 10:53:00
6:53 AM,73.0,72.0,96,30.05,8.0,Calm,Calm,-,N/A,,Clear,0,2013-07-07 11:53:00
7:53 AM,75.0,72.0,90,30.07,10.0,SE,8.1,-,N/A,,Clear,140,2013-07-07 12:53:00
8:19 AM,75.2,71.6,89,30.07,10.0,SE,5.8,-,N/A,,Mostly Cloudy,140,2013-07-07 13:19:00
8:53 AM,77.0,72.0,84,30.10,10.0,SSE,8.1,-,N/A,,Overcast,160,2013-07-07 13:53:00
9:53 AM,80.1,72.0,76,30.10,10.0,SE,5.8,-,N/A,,Mostly Cloudy,140,2013-07-07 14:53:00
10:53 AM,82.9,73.0,72,30.09,10.0,SE,6.9,-,N/A,,Mostly Cloudy,130,2013-07-07 15:53:00
11:48 AM,84.2,71.6,66,30.07,10.0,Calm,Calm,-,N/A,,Mostly Cloudy,0,2013-07-07 16:48:00
11:53 AM,84.0,73.0,69,30.09,10.0,Variable,4.6,-,N/A,,Mostly Cloudy,0,2013-07-07 16:53:00
12:53 PM,84.9,72.0,65,30.08,10.0,East,3.5,-,N/A,,Mostly Cloudy,100,2013-07-07 17:53:00
1:53 PM,88.0,72.0,59,30.07,10.0,Variable,4.6,-,N/A,,Partly Cloudy,0,2013-07-07 18:53:00
2:53 PM,89.1,73.0,59,30.05,10.0,ENE,3.5,-,N/A,,Clear,70,2013-07-07 19:53:00
3:53 PM,90.0,73.0,57,30.04,10.0,NE,6.9,-,N/A,,Clear,40,2013-07-07 20:53:00
4:53 PM,91.0,73.9,57,30.03,10.0,NE,4.6,-,N/A,,Clear,50,2013-07-07 21:53:00
5:53 PM,90.0,72.0,55,30.03,10.0,NE,3.5,-,N/A,,Clear,40,2013-07-07 22:53:00
6:53 PM,88.0,73.0,61,30.03,10.0,East,3.5,-,N/A,,Clear,90,2013-07-07 23:53:00
7:53 PM,82.9,75.0,77,30.05,10.0,Calm,Calm,-,N/A,,Clear,0,2013-07-08 00:53:00
8:53 PM,80.1,72.0,76,30.07,10.0,South,3.5,-,N/A,,Mostly Cloudy,190,2013-07-08 01:53:00
9:53 PM,78.1,73.9,87,30.09,10.0,South,4.6,-,N/A,,Mostly Cloudy,170,2013-07-08 02:53:00
10:53 PM,77.0,73.9,90,30.10,10.0,South,4.6,-,N/A,,Mostly Cloudy,190,2013-07-08 03:53:00
11:53 PM,75.9,73.9,94,30.10,10.0,Calm,Calm,-,N/A,,Mostly Cloudy,0,2013-07-08 04:53:00